[[{"header":{"parameterUnit":"m.s-1","parameterCategory":1,"la1":30.2991,"la2":30.254,"lo1":-89.0895,"lo2":-89.0444,"dy":0.0017,"dx":0.0017,"nx":28,"ny":28,"refTime":"2025-03-29T03:00:00:Z","depth":0,"parameterNumber":2,"parameterNumberName":"U-component_of_WINDS"},"data":[0,0,0,0,0,0,0,0,0,0,0,0,0,0,0,0,0,0,0,0,0,0,0,0,0,0,0,0,0,0,0,0,0,0,0,0,0,0,0,0,0,0,0,0,0,0,0,0,0,0,0,0,0,0,0,0,0,0,-6.9005,-6.9006,0,-6.9107,-6.9108,-6.9109,-6.9061,-6.9058,-6.9055,-6.9053,-6.9156,-6.9161,-6.9166,0,0,0,0,0,0,0,0,0,0,0,0,0,-6.8768,-6.8772,-6.9005,-6.9006,-6.9007,-6.9107,-6.9108,-6.911,-6.9061,-6.9058,-6.9055,-6.9052,-6.9154,-6.916,-6.9166,0,0,0,0,0,0,0,0,0,0,0,0,0,-6.887,-6.8774,-6.9004,-6.8995,-6.8995,-6.9107,-6.9108,-6.911,-6.9062,-6.9058,-6.9054,-6.905,-6.9152,-6.916,-6.9167,-6.9293,0,0,-6.9191,-6.9194,0,0,0,0,0,0,0,0,-6.8864,-6.8879,-6.8995,-6.8996,-6.8996,-6.9067,-6.9062,-6.9171,-6.9063,-6.9036,-6.9053,-6.9048,-6.9129,-6.9139,-6.9166,-6.9298,-6.9303,-6.9192,-6.9196,-6.92,-6.9202,0,0,0,0,0,0,0,-6.8857,-6.8874,-6.9045,-6.8997,-6.8998,-6.8986,-6.8996,-6.9083,-6.9103,-6.9038,-6.9035,-6.9048,-6.9129,-6.9159,-6.9168,-6.9304,-6.9191,-6.9198,-6.9203,-6.9206,-6.9547,-6.9551,0,0,0,0,0,0,-6.8851,-6.8869,-6.9042,-6.9048,-6.8919,-6.8993,-6.9005,-6.9048,-6.9102,-6.9107,-6.9051,-6.9045,-6.9148,-6.9159,-6.9172,-6.9323,-6.92,-6.9207,-6.9211,-6.9542,-6.9548,-6.9552,0,0,0,0,0,0,-6.8846,-6.8867,-6.9038,-6.8958,-6.8979,-6.9002,-6.9051,-6.9052,-6.9082,-6.9112,-6.9115,-6.9078,-6.9145,-6.9161,-6.9264,-6.9326,-6.921,-6.9217,-6.9537,-6.9544,-6.955,-6.9627,0,0,0,0,0,0,-6.8839,-6.8865,-6.8913,-6.8959,-6.8983,-6.9128,-6.9055,-6.9057,-6.9096,-6.9089,-6.9138,-6.9143,-6.9143,-6.9253,-6.9272,-6.9335,-6.9223,-6.9532,-6.954,-6.9548,-6.9619,-6.9636,-6.965,0,0,0,0,0,-6.8831,-6.8929,-6.8915,-6.8936,-6.9043,-6.9132,-6.9145,-6.9144,-6.9101,-6.915,-6.9169,-6.9141,-6.9317,-6.9264,-6.9285,-6.9351,-6.9528,-6.9538,-6.9547,-6.9612,-6.9632,-6.9649,0,0,0,0,0,0,-6.8888,-6.8935,-6.892,-6.9037,-6.9081,-6.9123,-6.9183,-6.9166,-6.9222,-6.9213,-6.921,-6.9221,-6.9328,-6.935,-6.929,-6.9477,-6.9416,-6.943,-6.9458,-6.9477,-6.9492,-6.9483,-6.923,0,0,0,0,0,-6.8914,-6.8983,-6.902,-6.912,-6.9143,-6.916,-6.9198,-6.9195,-6.924,-6.9258,-6.9285,-6.9329,-6.9395,-6.9438,-6.95,-6.9624,-6.9634,-6.968,-6.9695,-6.9708,-6.9719,-6.9787,-6.9808,-6.9585,-6.9585,-6.9585,0,0,-6.8969,-6.9003,-6.9046,-6.9132,-6.9165,-6.9236,-6.9175,-6.9252,-6.9305,-6.9269,-6.9368,-6.939,-6.944,-6.9555,-6.9606,-6.9576,-6.9784,-6.972,-6.973,-6.9735,-6.98,-6.9821,-6.984,-6.9592,-6.959,-6.9589,0,0,-6.9104,-6.9137,-6.9224,-6.926,-6.9313,-6.9324,-6.9345,-6.9392,-6.9405,-6.9505,-6.9481,-6.9544,-6.9656,-6.9693,-6.9727,-6.9882,-6.9858,-6.9902,-6.998,-7.0047,-7.0065,-7.008,-7.0135,-7.0154,-6.9914,-6.9915,-6.9915,0,-6.9164,-6.927,-6.927,-6.935,-6.9389,-6.9363,-6.9451,-6.9486,-6.9556,-6.9583,-6.955,-6.9692,-6.9724,-6.9847,-6.9885,-6.9914,-6.9938,-6.9894,-7.0062,-7.0078,-7.0092,-7.0144,-7.0165,-6.992,-6.9919,-6.9918,-6.9918,0,-6.9342,-6.9416,-6.948,-6.955,-6.9596,-6.968,-6.9694,-6.9741,-6.9735,-6.975,-6.9853,-6.9892,-6.9961,-6.9991,-6.9985,-7.0114,-7.0094,-7.0062,-6.9999,-7.0118,-7.0167,-7.0187,-6.9927,-6.9925,-6.9923,-6.9922,0,0,-6.951,-6.9583,-6.9606,-6.9638,-6.9697,-6.9754,-6.9838,-6.9908,-6.9948,-6.9999,-7.0069,-7.0167,-7.0139,-7.0177,-7.0176,-7.0235,-7.0355,-7.0195,-7.0196,-7.0222,-7.05,-7.0522,-7.0545,-7.0341,-7.0345,-7.0348,-7.0495,0,-6.9648,-6.9794,-6.98,-6.9933,-7.0002,-6.9981,-7.0054,-7.0098,-7.0116,-7.0178,-7.0198,-7.0267,-7.0224,-7.0248,-7.0305,-7.0328,-7.041,-7.0318,-7.0405,-7.0408,-7.039,-7.057,-7.0593,-7.073,-7.0514,-7.0517,-7.052,0,-6.9827,-6.9886,-7.0026,-7.0077,-7.0107,-7.0172,-7.0237,-7.0297,-7.0348,-7.0357,-7.0402,-7.0393,-7.048,-7.0418,-7.0537,-7.0474,-7.0511,-7.0529,-7.0534,-7.0539,-7.0469,-7.0579,-7.0774,-7.0793,-7.055,-7.0547,-7.0545,0,-6.9935,-7.0049,-7.0148,-7.0177,-7.0239,-7.0285,-7.0314,-7.0361,-7.0403,-7.0461,-7.0489,-7.0556,-7.0592,-7.0645,-7.0655,-7.0609,-7.0775,-7.0714,-7.0784,-7.0784,-7.0817,-7.0814,-7.1018,-7.0845,-7.0845,-7.0844,-7.0844,0,-7.0087,-7.0173,-7.0197,-7.0258,-7.0355,-7.0362,-7.0458,-7.0483,-7.0526,-7.0591,-7.0578,-7.064,-7.0651,-7.0715,-7.0724,-7.0822,-7.0839,-7.0848,-7.0849,-7.0848,-7.0847,-7.087,-7.0859,-7.085,-7.0849,-7.0848,-7.0847,0,-7.0221,-7.0241,-7.0348,-7.0399,-7.0415,-7.0484,-7.0528,-7.0587,-7.0606,-7.0689,-7.0709,-7.0738,-7.0814,-7.083,-7.092,-7.0926,-7.1042,-7.1034,-7.1024,-7.1023,-7.1092,-7.1084,-7.1316,-7.1346,-7.1155,-7.1157,-7.1159,0,-7.0315,-7.0382,-7.0442,-7.0485,-7.0516,-7.0586,-7.063,-7.0641,-7.0687,-7.0753,-7.0804,-7.0879,-7.0938,-7.1061,-7.109,-7.1159,-7.1152,-7.1229,-7.1162,-7.116,-7.1152,-7.1147,-7.1153,-7.124,-7.1242,-7.1244,-7.1245,0,-7.048,-7.0487,-7.0551,-7.0621,-7.0674,-7.0729,-7.0781,-7.0817,-7.0835,-7.0888,-7.0967,-7.1014,-7.1107,-7.1181,-7.1252,-7.1281,-7.1266,-7.1267,-7.1287,-7.1285,-7.1276,-7.128,-7.1056,-7.126,-7.1259,-7.1258,-7.1257,-7.1256,-7.0596,-7.0655,-7.0707,-7.0779,-7.0821,-7.087,-7.0928,-7.0956,-7.1021,-7.1098,-7.1101,-7.1187,-7.1239,-7.1332,-7.1366,-7.1433,-7.1409,-7.1438,-7.1445,-7.1451,-7.1457,-7.1268,-7.1446,-7.1446,-7.1446,-7.1445,-7.1445,0,-7.0759,-7.0792,-7.0859,-7.0934,-7.0992,-7.0976,-7.1033,-7.1083,-7.1158,-7.1208,-7.1269,-7.136,-7.1433,-7.147,-7.1543,-7.159,-7.1585,-7.1608,-7.1604,-7.1611,-7.1475,-7.145,-7.1611,-7.1611,-7.1611,-7.1611,-7.1611,-7.1611,-7.085,-7.0948,-7.0963,-7.1083,-7.1116,-7.12,-7.1234,-7.128,-7.1321,-7.1423,-7.1485,-7.1509,-7.1554,-7.1631,-7.1698,-7.1707,-7.1734,-7.176,-7.1766,-7.1637,-7.162,-7.1604,-7.158,-7.1766,-7.1767,-7.1896,-7.1897,-7.1898]},{"header":{"parameterUnit":"m.s-1","parameterCategory":1,"la1":30.2991,"la2":30.254,"lo1":-89.0895,"lo2":-89.0444,"dy":0.0017,"dx":0.0017,"nx":28,"ny":28,"refTime":"2025-03-29T03:00:00:Z","depth":0,"parameterNumber":3,"parameterNumberName":"V-component_of_WINDS"},"data":[0,0,0,0,0,0,0,0,0,0,0,0,0,0,0,0,0,0,0,0,0,0,0,0,0,0,0,0,0,0,0,0,0,0,0,0,0,0,0,0,0,0,0,0,0,0,0,0,0,0,0,0,0,0,0,0,0,0,4.3562,4.3562,0,4.3526,4.3526,4.3525,4.3466,4.3465,4.3464,4.3463,4.3422,4.3422,4.3422,0,0,0,0,0,0,0,0,0,0,0,0,0,4.358,4.358,4.3562,4.3562,4.3561,4.3526,4.3526,4.3525,4.3467,4.3465,4.3464,4.3463,4.3422,4.3422,4.3422,0,0,0,0,0,0,0,0,0,0,0,0,0,4.3561,4.358,4.3562,4.3528,4.3525,4.3526,4.3526,4.3525,4.3467,4.3465,4.3464,4.3462,4.3422,4.3422,4.3422,4.3453,0,0,4.3421,4.3421,0,0,0,0,0,0,0,0,4.3562,4.356,4.3534,4.353,4.3527,4.3499,4.3517,4.3501,4.3467,4.3489,4.3463,4.3461,4.3449,4.3446,4.3443,4.3451,4.3449,4.3421,4.3421,4.3421,4.3421,0,0,0,0,0,0,0,4.3563,4.3561,4.3548,4.3533,4.3529,4.3514,4.351,4.3513,4.3478,4.3487,4.3482,4.3479,4.3447,4.3443,4.3441,4.3448,4.3421,4.3421,4.3421,4.3421,4.3483,4.3485,0,0,0,0,0,0,4.357,4.3563,4.3549,4.3547,4.3541,4.3515,4.351,4.351,4.3478,4.3472,4.3481,4.3477,4.3444,4.3442,4.344,4.3476,4.3421,4.3421,4.3421,4.3481,4.3484,4.3485,0,0,0,0,0,0,4.3571,4.3569,4.355,4.3554,4.355,4.3517,4.3516,4.351,4.3506,4.3473,4.3466,4.3484,4.3443,4.344,4.3451,4.3473,4.3421,4.3421,4.3479,4.3482,4.3485,4.3547,0,0,0,0,0,0,4.3571,4.357,4.3581,4.3554,4.355,4.3563,4.3518,4.351,4.3507,4.3501,4.3474,4.3468,4.3441,4.3452,4.3451,4.3472,4.3421,4.3477,4.3481,4.3484,4.3543,4.3551,4.3559,0,0,0,0,0,4.3572,4.3599,4.3582,4.3581,4.3564,4.3564,4.3561,4.3531,4.3509,4.352,4.3499,4.3469,4.3472,4.3453,4.3452,4.3474,4.3476,4.348,4.3483,4.3539,4.355,4.3559,0,0,0,0,0,0,4.3626,4.3594,4.3575,4.3594,4.3583,4.3554,4.3567,4.3543,4.3536,4.3531,4.3493,4.3487,4.3504,4.3489,4.347,4.3504,4.3469,4.3473,4.3512,4.3522,4.353,4.3532,4.3421,0,0,0,0,0,4.3641,4.3645,4.3616,4.3635,4.3631,4.3601,4.3599,4.3578,4.3563,4.3557,4.3537,4.3524,4.3522,4.3521,4.3517,4.3541,4.3535,4.3556,4.3564,4.357,4.3574,4.3588,4.3598,4.3498,4.3498,4.3498,0,0,4.367,4.3653,4.3657,4.3646,4.3634,4.3639,4.3596,4.3602,4.3605,4.3558,4.3568,4.3553,4.3536,4.3554,4.3561,4.3543,4.3601,4.3576,4.3581,4.3581,4.3593,4.3603,4.3611,4.3501,4.3501,4.35,0,0,4.3726,4.3713,4.3729,4.372,4.3704,4.3684,4.3688,4.3664,4.3653,4.3663,4.3629,4.3632,4.3628,4.3618,4.3613,4.367,4.3643,4.367,4.3711,4.3726,4.3734,4.374,4.3762,4.377,4.3674,4.3674,4.3674,0,4.3764,4.377,4.374,4.3749,4.3746,4.3706,4.3723,4.3714,4.3697,4.3696,4.3676,4.3674,4.3659,4.3676,4.3691,4.3687,4.3691,4.3672,4.3735,4.3742,4.3748,4.3768,4.3776,4.3677,4.3677,4.3677,4.3676,0,4.3818,4.3824,4.3838,4.3826,4.3825,4.3837,4.3809,4.3811,4.3791,4.3774,4.3786,4.3768,4.3761,4.3763,4.3742,4.3778,4.3768,4.3742,4.3707,4.3761,4.378,4.3787,4.3682,4.3681,4.368,4.3679,0,0,4.3904,4.3879,4.3884,4.388,4.3861,4.3864,4.3876,4.3872,4.3875,4.3866,4.3875,4.3876,4.3854,4.3848,4.3825,4.3838,4.3887,4.3811,4.381,4.3827,4.3928,4.3948,4.3957,4.3869,4.3871,4.3872,4.393,0,4.3957,4.3977,4.3952,4.3977,4.3982,4.3947,4.3957,4.3947,4.3933,4.3935,4.3918,4.3919,4.3889,4.3886,4.3897,4.3879,4.3907,4.3874,4.3878,4.3878,4.3884,4.3966,4.3986,4.4042,4.3937,4.3938,4.3939,0,4.4019,4.4017,4.4043,4.4026,4.4028,4.4038,4.4033,4.4036,4.4025,4.4013,4.4009,4.3984,4.3995,4.3962,4.3977,4.3956,4.3956,4.3948,4.395,4.3948,4.3912,4.3968,4.4058,4.4067,4.395,4.3949,4.3948,0,4.4082,4.4084,4.4101,4.4098,4.4078,4.4087,4.4079,4.4066,4.4066,4.4062,4.4062,4.4059,4.4057,4.4055,4.403,4.4008,4.405,4.4014,4.4041,4.4042,4.405,4.405,4.4142,4.405,4.405,4.405,4.405,0,4.4143,4.4161,4.4129,4.4139,4.4159,4.4131,4.4151,4.4139,4.4129,4.4137,4.4105,4.4113,4.408,4.4085,4.4065,4.4082,4.4081,4.4072,4.4067,4.4075,4.4077,4.4075,4.407,4.4052,4.4052,4.4051,4.4051,0,4.4214,4.4194,4.421,4.4192,4.4188,4.4204,4.4188,4.4197,4.4181,4.4192,4.4193,4.4168,4.4172,4.4148,4.4146,4.4134,4.416,4.4148,4.4165,4.4161,4.419,4.4188,4.4285,4.4296,4.4197,4.4198,4.4198,0,4.4255,4.4268,4.4253,4.4257,4.4251,4.4258,4.4259,4.4232,4.4234,4.4225,4.4236,4.4238,4.4238,4.4247,4.4228,4.4228,4.4216,4.425,4.4215,4.4225,4.4218,4.4218,4.422,4.4257,4.4258,4.4259,4.426,0,4.4329,4.432,4.4323,4.4324,4.4326,4.4325,4.4321,4.4326,4.4298,4.4302,4.4308,4.4308,4.4309,4.4312,4.4309,4.43,4.4276,4.4271,4.4278,4.4286,4.4296,4.4293,4.4185,4.4269,4.4268,4.4267,4.4267,4.4266,4.4387,4.4399,4.4391,4.4396,4.4392,4.439,4.4399,4.4386,4.439,4.439,4.4375,4.4384,4.4375,4.4368,4.4363,4.437,4.4353,4.4362,4.4364,4.4367,4.4373,4.4296,4.4369,4.4368,4.4368,4.4368,4.4368,0,4.4461,4.4455,4.4461,4.4459,4.4464,4.4443,4.4439,4.4444,4.4453,4.4447,4.4449,4.4457,4.4461,4.4444,4.4446,4.4455,4.4444,4.4456,4.4455,4.4454,4.4387,4.4382,4.4465,4.4465,4.4465,4.4465,4.4465,4.4465,4.45,4.452,4.451,4.4527,4.452,4.453,4.453,4.4529,4.4525,4.4536,4.4539,4.453,4.452,4.4522,4.4525,4.452,4.4522,4.4539,4.453,4.4468,4.4458,4.4449,4.4444,4.4539,4.4539,4.4597,4.4597,4.4598]}]]